Home > Weather > Sion > Past weeks

Flag for Switzerland Weather for the Past 2 Weeks in Sion, Valais, Switzerland

Now
47 °F

Cool.


Feels Like: 47 °F
Forecast: 39 / 49 °F
Wind: 2 mph from East

Location: Sion

Current Time: Feb 8, 2016 at 6:06:12 PM

Latest Report: Feb 8, 2016 at 5:00 PM


Visibility: N/A

Pressure: 29.89 "Hg (28.08 "Hg at 514m altitude)

Humidity: 67%

Dew point: 37 °F

Location of SionLocation

Historic Weather in Sion — Graph

°F

Sion Temperature Yesterday

Maximum temperature yesterday: 53 °F (at 1:00 PM)
Minimum temperature yesterday: 38 °F (at 1:00 AM)
Average temperature yesterday: 43 °F

High & Low Weather Summary for the Past Weeks

 TemperatureHumidityPressure
High59 °F (Feb 1, 3:00 PM)97% (Feb 8, 3:00 AM)30.66 "Hg (Feb 8, 3:00 AM)
Low28 °F (Jan 25, 7:00 AM)32% (Jan 30, 7:00 PM)29.72 "Hg (Feb 7, 11:00 AM)
Average42 °F76%30.34 "Hg
* Reported Jan 24 4:00 PM — Feb 8 4:00 PM, Sion, Weather by CustomWeather, © 2016

Note: Actual official high and low records may vary slightly from our data, if they occured in-between our weather recording intervals... More about our weather records

Advertising

Sion Weather History for the Previous 24 Hours

 ConditionsComfort  
Time TempWeatherWind HumidityBarometerVisibility
4:00 PM
Mon, Feb 8
49 °FCool.2 mph59%29.88 "HgN/A
3:00 PM48 °FCool.3 mph57%29.87 "HgN/A
2:00 PM48 °FCool.2 mph59%29.92 "HgN/A
1:00 PM46 °FOvercast.3 mph58%29.94 "Hg16 mi
12:00 PM44 °FQuite cool.6 mph71%29.98 "HgN/A
11:00 AM42 °FQuite cool.5 mph80%30.02 "HgN/A
10:00 AM38 °FOvercast.3 mph88%30.06 "Hg16 mi
9:00 AM35 °FChilly.1 mph92%30.09 "HgN/A
8:00 AM34 °FChilly.2 mph92%30.09 "HgN/A
7:00 AM34 °FClear.2 mph92%30.08 "Hg12 mi
6:00 AM34 °FChilly.2 mph94%30.08 "HgN/A
5:00 AM31 °FChilly.1 mph97%30.09 "HgN/A
3:00 AM34 °FChilly.2 mph97%30.07 "HgN/A
2:00 AM35 °FChilly.3 mph94%30.07 "HgN/A
12:00 AM37 °FChilly.1 mph95%30.06 "HgN/A
11:00 PM
Sun, Feb 7
38 °FChilly.2 mph95%30.05 "HgN/A
10:00 PM39 °FPassing clouds.1 mph95%30.05 "Hg11 mi
9:00 PM39 °FChilly.1 mph95%30.03 "HgN/A
8:00 PM40 °FChilly.1 mph93%30.00 "HgN/A
7:00 PM40 °FLight rain. Overcast.1 mph89%29.99 "Hg6 mi
6:00 PM41 °FQuite cool.7 mph87%29.95 "HgN/A
Weather by CustomWeather, © 2016

See weather overviewHow to use our weather pages